Regional Weather Roundup
Issued by NWS

Home | Current Version | Previous Version | Text Only | Print | Product List | Glossary On
Versions: 1 2 3 4 5 6 7 8 9 10 11 12 13 14 15 16 17 18 19 20 21 22 23 24 25 26 27 28 29 30 31 32 33 34 35 36 37 38 39 40 41 42 43 44 45 46 47 48 49 50
000
ASUS46 KPQR 290610
RWROR

OREGON REGIONAL WEATHER ROUNDUP
NATIONAL WEATHER SERVICE PORTLAND OR
1000 PM PST TUE JAN 28 2020

NOTE: "FAIR" INDICATES FEW OR NO CLOUDS BELOW 12,000 FEET WITH
NO SIGNIFICANT WEATHER AND/OR OBSTRUCTIONS TO VISIBILITY.

ORZ001>013-290700-
NORTHWEST OREGON


CITY           SKY/WX    TMP DP  RH WIND       PRES   REMARKS
ASTORIA        CLOUDY    48  46  93 SW9G17    30.22R
6HR MIN TEMP:  47; 6HR MAX TEMP:  50; 6HR PCP:  0.01;

TILLAMOOK      CLOUDY    46  46 100 CALM      30.27S
NEWPORT        CLOUDY    46  45  93 S6        30.30S FOG
FLORENCE       CLOUDY    46  46  97 CALM      30.29F
PORTLAND       CLOUDY    49  44  83 S8        30.28R
6HR MIN TEMP:  49; 6HR MAX TEMP:  52;

VANCOUVER WA   CLOUDY    50  43  77 S6        30.27R
6HR MIN TEMP:  49; 6HR MAX TEMP:  52; 6HR PCP: TRACE;

SCAPPOOSE      CLOUDY    48  44  86 S5        30.26R
6HR MIN TEMP:  47; 6HR MAX TEMP:  50; 6HR PCP:  0.05;

HILLSBORO      CLOUDY    48  45  89 S12       30.26R
6HR MIN TEMP:  47; 6HR MAX TEMP:  51;

AURORA         CLOUDY    48  44  86 S7        30.29R
6HR MIN TEMP:  48; 6HR MAX TEMP:  50; 6HR PCP: TRACE;

MCMINNVILLE    CLOUDY    47  45  93 CALM      30.27R
6HR MIN TEMP:  47; 6HR MAX TEMP:  51; 6HR PCP: TRACE;

SALEM          MOCLDY    46  43  89 S8        30.28R
6HR MIN TEMP:  46; 6HR MAX TEMP:  50;

CORVALLIS      CLOUDY    46  45  96 S8        30.30S
EUGENE         CLOUDY    47  45  93 S5        30.31R
6HR MIN TEMP:  47; 6HR MAX TEMP:  51; 6HR PCP:  0.02;

CRESWELL       CLOUDY    48  46  93 S5        30.30S
$$

ORZ021-028-290700-
SOUTHWEST OREGON


CITY           SKY/WX    TMP DP  RH WIND       PRES   REMARKS
NORTH BEND     CLOUDY    49  47  93 MISG      30.32F
6HR MIN TEMP:  49; 6HR MAX TEMP:  53;

BROOKINGS      CLOUDY    49  47  93 E3        30.35S
ROSEBURG       CLOUDY    47  43  86 CALM      30.32R
6HR MIN TEMP:  47; 6HR MAX TEMP:  53;

SEXTON SUMMIT  FOG       35  34  96 S10       30.26S VSB 1/4 WCI  27
6HR MIN TEMP:  35; 6HR MAX TEMP:  38;

GRANTS PASS    MOCLDY    43  41  93 CALM      30.35F
MEDFORD        CLEAR     41  36  82 S6        30.33R
6HR MIN TEMP:  40; 6HR MAX TEMP:  53;

$$

ORZ014>016-041-290700-
COLUMBIA GORGE


CITY           SKY/WX    TMP DP  RH WIND       PRES   REMARKS
TROUTDALE      CLOUDY    50  43  77 S3        30.28R
6HR MIN TEMP:  50; 6HR MAX TEMP:  53;

HOOD RIVER     CLOUDY    43  43 100 S3        30.25R
THE DALLES     CLEAR     41  37  86 CALM      30.25R
6HR MIN TEMP:  39; 6HR MAX TEMP:  52;

$$

ORZ029>031-041-044-049-050-061>064-502-503-505>511-290700-
EASTERN OREGON


CITY           SKY/WX    TMP DP  RH WIND       PRES   REMARKS
MADRAS         NOT AVBL
REDMOND        MOCLDY    34  31  88 CALM      30.23R
6HR MIN TEMP:  33; 6HR MAX TEMP:  40; 6HR PCP:  0.01;

BEND           CLEAR     36  34  93 E6        30.22R
PRINEVILLE     PTCLDY    34  32  93 CALM      30.23S
KLAMATH FALLS  PTCLDY    34  28  79 W8        30.27S
6HR MIN TEMP:  32; 6HR MAX TEMP:  46;

LAKEVIEW       MOCLDY    33  27  78 SW6       30.26R
HERMISTON      CLEAR     40  36  86 S5        30.23R
6HR MIN TEMP:  39; 6HR MAX TEMP:  54;

PENDLETON      MOCLDY    41  34  76 S7        30.22R
6HR MIN TEMP:  41; 6HR MAX TEMP:  50;

JOHN DAY       MOCLDY    37  35  92 CALM      30.23R
MEACHAM        LGT RAIN  34  32  92 CALM      30.19R FOG
6HR MIN TEMP:  34; 6HR MAX TEMP:  37; 6HR PCP:  0.09;

LA GRANDE      CLOUDY    38  34  85 NE6       30.22R
6HR MIN TEMP:  37; 6HR MAX TEMP:  42; 6HR PCP:  0.03;

BAKER CITY     MOCLDY    33  30  88 CALM      30.21R FOG
6HR MIN TEMP:  32; 6HR MAX TEMP:  44; 6HR PCP: TRACE;

BURNS          CLEAR     29  25  85 S6        30.22R
6HR MIN TEMP:  29; 6HR MAX TEMP:  41; 6HR PCP:  0.03;

ROME             N/A     35  32  88 W8        30.20R
6HR MIN TEMP:  34; 6HR MAX TEMP:  43; 6HR PCP:  0.02;

ONTARIO        PTCLDY    37  34  89 N3        30.22R
6HR MIN TEMP:  35; 6HR MAX TEMP:  47;

$$



USA.gov is the U.S. government's official web portal to all federal, state and local government web resources and services.